Погода в Сельце

Россия / Брянская область     53°20′48″N   34°04′55″E
темп.,
°C
ветер,
м/с
пор.,
м/с
влажн.,
%
обл.,
%
осадки,
мм/ч
давл.,
гПа
погр.,
м
14 апреля, ср
ср1400:00+11юв3981100 0.1 1018279
03:00+10ю378628 0.1 1018260
06:00+8ю359784 0.0 1019103
09:00+11ю348057 0.0 1019444
12:00+15ю3461100 0.1 10181265
15:00+15ююв2357100 0.3 10161217
18:00+15юв2465100 0.3 1016508
21:00+12с1176100 0.4 101611
15 апреля, чт
чт1500:00+11св2280100 0.0 101534
03:00+10ссз1186100 0.1 101413
06:00+9вюв2290100 0.0 101424
09:00+12вюв41069100 0.0 1014544
12:00+15в465537 0.1 10131431
15:00+16в7857100 1.9 10121253
18:00+12в71278100 2.0 1013743
21:00+11св368559 3.9 1013163
16 апреля, пт
пт1600:00+10всв388769 0.3 1013212
03:00+8в379091 0.3 1013145
06:00+7всв359257 0.0 1015104
09:00+11вюв487799 0.1 1015551
12:00+11в4980100 3.0 1016478
15:00+13вюв6972100 4.4 10161037
18:00+13в4769100 1.4 1016327
21:00+9ююв117812 1.6 101811
17 апреля, сб
сб1700:00+8ююв238498 0.0 101948
03:00+8в228061 0.0 102019
06:00+7ссв338899 0.0 102163
09:00+10всв5788100 0.0 1021556
12:00+11св5783100 0.0 1021742
15:00+12св61077100 0.1 10211052
18:00+12св71274100 0.1 1020719
21:00+10всв613755 0.1 1022526
18 апреля, вс
вс1800:00+9всв6137633 0.0 1022507
03:00+7всв5118098 0.0 1023374
06:00+7всв5977100 0.0 1024378
09:00+7всв477898 0.1 1025395
12:00+10в467147 0.0 1026745
15:00+11всв5772100 0.1 1026895
18:00+11в367220 0.0 1026264
21:00+8всв35776 0.0 102775